Time,TemperatureF,DewpointF,PressureIn,WindDirection,WindDirectionDegrees,WindSpeedMPH,WindSpeedGustMPH,Humidity,HourlyPrecipIn,Conditions,Clouds,dailyrainin,SoftwareType,DateUTC
2014-02-07 00:00:00,-4.0,-9.4,30.42,WSW,248,2.0,6.0,82,0.00,,,0.00,VWS V14.01,2014-02-07 06:00:00,
2014-02-07 00:14:00,-5.5,-9.0,30.41,SW,229,3.0,7.0,83,0.00,,,0.00,weatherlink.com 1.10,2014-02-07 06:14:00,
2014-02-07 00:29:00,-6.2,-10.0,30.42,West,275,4.0,6.0,82,0.00,,,0.00,weatherlink.com 1.10,2014-02-07 06:29:00,
2014-02-07 00:30:00,-5.0,-10.4,30.42,West,270,3.0,7.0,81,0.00,,,0.00,VWS V14.01,2014-02-07 06:30:00,
2014-02-07 00:44:00,-6.5,-10.0,30.42,WSW,254,4.0,7.0,84,0.00,,,0.00,weatherlink.com 1.10,2014-02-07 06:44:00,
2014-02-07 00:59:00,-6.2,-10.0,30.41,WNW,298,2.0,7.0,83,0.00,,,0.00,weatherlink.com 1.10,2014-02-07 06:59:00,
2014-02-07 01:00:00,-5.0,-10.2,30.41,West,270,2.0,7.0,82,0.00,,,0.00,VWS V14.01,2014-02-07 07:00:00,
2014-02-07 01:15:00,-7.0,-11.0,30.41,SW,218,2.0,6.0,84,0.00,,,0.00,weatherlink.com 1.10,2014-02-07 07:15:00,
2014-02-07 01:29:00,-7.5,-11.0,30.41,SW,227,1.0,3.0,84,0.00,,,0.00,weatherlink.com 1.10,2014-02-07 07:29:00,
2014-02-07 01:30:00,-6.0,-11.1,30.41,SW,225,2.0,7.0,81,0.00,,,0.00,VWS V14.01,2014-02-07 07:30:00,
2014-02-07 01:44:00,-8.3,-12.0,30.42,West,263,0.0,5.0,83,0.00,,,0.00,weatherlink.com 1.10,2014-02-07 07:44:00,
2014-02-07 02:00:00,-8.9,-12.0,30.42,WSW,244,1.0,4.0,84,0.00,,,0.00,weatherlink.com 1.10,2014-02-07 08:00:00,
2014-02-07 02:15:00,-9.1,-12.0,30.41,West,263,0.0,3.0,85,0.00,,,0.00,weatherlink.com 1.10,2014-02-07 08:15:00,
2014-02-07 02:30:00,-9.6,-13.0,30.41,West,259,1.0,3.0,84,0.00,,,0.00,weatherlink.com 1.10,2014-02-07 08:30:00,
2014-02-07 02:45:00,-9.5,-13.0,30.41,WSW,246,0.0,6.0,85,0.00,,,0.00,weatherlink.com 1.10,2014-02-07 08:45:00,
2014-02-07 03:00:00,-10.0,-13.0,30.39,WSW,256,0.0,3.0,85,0.00,,,0.00,weatherlink.com 1.10,2014-02-07 09:00:00,
2014-02-07 03:15:00,-10.1,-13.0,30.39,WSW,248,3.0,5.0,86,0.00,,,0.00,weatherlink.com 1.10,2014-02-07 09:15:00,
2014-02-07 03:30:00,-10.3,-14.0,30.39,SW,221,1.0,2.0,85,0.00,,,0.00,weatherlink.com 1.10,2014-02-07 09:30:00,
2014-02-07 03:45:00,-10.4,-14.0,30.38,WSW,253,1.0,3.0,85,0.00,,,0.00,weatherlink.com 1.10,2014-02-07 09:45:00,
2014-02-07 04:00:00,-10.4,-14.0,30.38,West,270,0.0,2.0,85,0.00,,,0.00,weatherlink.com 1.10,2014-02-07 10:00:00,
2014-02-07 04:15:00,-10.4,-13.0,30.38,WSW,257,1.0,2.0,86,0.00,,,0.00,weatherlink.com 1.10,2014-02-07 10:15:00,
2014-02-07 04:30:00,-10.9,-14.0,30.38,West,263,1.0,3.0,85,0.00,,,0.00,weatherlink.com 1.10,2014-02-07 10:30:00,
2014-02-07 04:46:00,-11.7,-15.0,30.39,SW,223,4.0,5.0,85,0.00,,,0.00,weatherlink.com 1.10,2014-02-07 10:46:00,
2014-02-07 05:00:00,-10.0,-13.7,30.39,SW,225,2.0,8.0,85,0.00,,,0.00,VWS V14.01,2014-02-07 11:00:00,
2014-02-07 05:01:00,-10.7,-14.0,30.39,SW,216,1.0,7.0,86,0.00,,,0.00,weatherlink.com 1.10,2014-02-07 11:01:00,
2014-02-07 05:16:00,-10.8,-14.0,30.39,WSW,241,5.0,6.0,86,0.00,,,0.00,weatherlink.com 1.10,2014-02-07 11:16:00,
2014-02-07 05:30:00,-10.0,-14.2,30.40,SW,225,2.0,8.0,84,0.00,,,0.00,VWS V14.01,2014-02-07 11:30:00,
2014-02-07 05:31:00,-11.0,-14.0,30.40,WSW,242,8.0,8.0,85,0.00,,,0.00,weatherlink.com 1.10,2014-02-07 11:31:00,
2014-02-07 05:46:00,-10.2,-13.0,30.40,WSW,257,7.0,9.0,86,0.00,,,0.00,weatherlink.com 1.10,2014-02-07 11:46:00,
2014-02-07 06:00:00,-9.0,-13.8,30.40,SW,225,4.0,11.0,83,0.00,,,0.00,VWS V14.01,2014-02-07 12:00:00,
2014-02-07 06:01:00,-10.5,-14.0,30.40,SW,236,7.0,9.0,85,0.00,,,0.00,weatherlink.com 1.10,2014-02-07 12:01:00,
2014-02-07 06:16:00,-10.2,-14.0,30.40,SW,214,5.0,8.0,85,0.00,,,0.00,weatherlink.com 1.10,2014-02-07 12:16:00,
2014-02-07 06:30:00,-9.0,-13.9,30.41,SW,225,4.0,10.0,83,0.00,,,0.00,VWS V14.01,2014-02-07 12:30:00,
2014-02-07 06:31:00,-10.6,-14.0,30.41,WSW,241,4.0,8.0,85,0.00,,,0.00,weatherlink.com 1.10,2014-02-07 12:31:00,
2014-02-07 06:46:00,-10.4,-14.0,30.40,SW,226,4.0,10.0,85,0.00,,,0.00,weatherlink.com 1.10,2014-02-07 12:46:00,
2014-02-07 07:00:00,-9.0,-13.5,30.41,SW,225,6.0,11.0,83,0.00,,,0.00,VWS V14.01,2014-02-07 13:00:00,
2014-02-07 07:01:00,-10.2,-14.0,30.41,SSW,206,6.0,9.0,85,0.00,,,0.00,weatherlink.com 1.10,2014-02-07 13:01:00,
2014-02-07 07:16:00,-10.1,-13.0,30.41,SW,232,7.0,10.0,85,0.00,,,0.00,weatherlink.com 1.10,2014-02-07 13:16:00,
2014-02-07 07:30:00,-8.0,-12.5,30.41,SW,225,6.0,12.0,84,0.00,,,0.00,VWS V14.01,2014-02-07 13:30:00,
2014-02-07 07:31:00,-9.2,-13.0,30.41,SW,227,6.0,7.0,85,0.00,,,0.00,weatherlink.com 1.10,2014-02-07 13:31:00,
2014-02-07 07:46:00,-8.8,-12.0,30.42,WSW,246,9.0,10.0,84,0.00,,,0.00,weatherlink.com 1.10,2014-02-07 13:46:00,
2014-02-07 08:00:00,-7.0,-11.7,30.42,SW,225,4.0,11.0,84,0.00,,,0.00,VWS V14.01,2014-02-07 14:00:00,
2014-02-07 08:02:00,-8.1,-12.0,30.42,SW,231,5.0,7.0,84,0.00,,,0.00,weatherlink.com 1.10,2014-02-07 14:02:00,
2014-02-07 08:17:00,-7.7,-12.0,30.42,West,264,2.0,6.0,83,0.00,,,0.00,weatherlink.com 1.10,2014-02-07 14:17:00,
2014-02-07 08:30:00,-4.0,-10.8,30.42,West,270,3.0,6.0,83,0.00,,,0.00,VWS V14.01,2014-02-07 14:30:00,
2014-02-07 08:32:00,-7.2,-11.0,30.42,WSW,243,1.0,5.0,84,0.00,,,0.00,weatherlink.com 1.10,2014-02-07 14:32:00,
2014-02-07 08:47:00,-6.0,-10.0,30.42,West,273,4.0,7.0,83,0.00,,,0.00,weatherlink.com 1.10,2014-02-07 14:47:00,
2014-02-07 09:00:00,-1.0,-9.2,30.42,West,270,3.0,7.0,81,0.00,,,0.00,VWS V14.01,2014-02-07 15:00:00,
2014-02-07 09:02:00,-5.3,-9.0,30.42,SW,230,3.0,5.0,83,0.00,,,0.00,weatherlink.com 1.10,2014-02-07 15:02:00,
2014-02-07 09:17:00,-4.1,-8.0,30.43,SW,218,3.0,7.0,83,0.00,,,0.00,weatherlink.com 1.10,2014-02-07 15:17:00,
2014-02-07 09:30:00,1.0,-7.3,30.43,WSW,248,3.0,8.0,79,0.00,,,0.00,VWS V14.01,2014-02-07 15:30:00,
2014-02-07 09:32:00,-3.2,-7.0,30.43,SW,227,4.0,7.0,82,0.00,,,0.00,weatherlink.com 1.10,2014-02-07 15:32:00,
2014-02-07 09:47:00,-2.3,-7.0,30.43,WSW,238,5.0,7.0,81,0.00,,,0.00,weatherlink.com 1.10,2014-02-07 15:47:00,
2014-02-07 10:00:00,2.0,-6.1,30.43,WSW,248,3.0,10.0,78,0.00,,,0.00,VWS V14.01,2014-02-07 16:00:00,
2014-02-07 10:02:00,-1.4,-6.0,30.43,SW,234,2.0,9.0,80,0.00,,,0.00,weatherlink.com 1.10,2014-02-07 16:02:00,
2014-02-07 10:17:00,-0.8,-6.0,30.43,SSE,151,3.0,8.0,79,0.00,,,0.00,weatherlink.com 1.10,2014-02-07 16:17:00,
2014-02-07 10:30:00,5.0,-4.8,30.43,WSW,248,3.0,9.0,77,0.00,,,0.00,VWS V14.01,2014-02-07 16:30:00,
2014-02-07 10:32:00,0.3,-5.0,30.43,West,260,2.0,10.0,79,0.00,,,0.00,weatherlink.com 1.10,2014-02-07 16:32:00,
2014-02-07 10:47:00,1.3,-4.0,30.43,West,260,7.0,8.0,78,0.00,,,0.00,weatherlink.com 1.10,2014-02-07 16:47:00,
2014-02-07 11:00:00,6.0,-3.6,30.43,WSW,248,4.0,12.0,76,0.00,,,0.00,VWS V14.01,2014-02-07 17:00:00,
2014-02-07 11:02:00,2.2,-4.0,30.43,SSW,213,4.0,12.0,76,0.00,,,0.00,weatherlink.com 1.10,2014-02-07 17:02:00,
2014-02-07 11:17:00,1.8,-4.0,30.43,SW,225,7.0,12.0,77,0.00,,,0.00,weatherlink.com 1.10,2014-02-07 17:17:00,
2014-02-07 11:30:00,7.0,-3.4,30.43,SW,225,7.0,13.0,75,0.00,,,0.00,VWS V14.01,2014-02-07 17:30:00,
2014-02-07 11:33:00,2.5,-3.0,30.43,West,267,8.0,12.0,76,0.00,,,0.00,weatherlink.com 1.10,2014-02-07 17:33:00,
2014-02-07 11:48:00,3.0,-3.0,30.43,WSW,249,8.0,12.0,76,0.00,,,0.00,weatherlink.com 1.10,2014-02-07 17:48:00,
2014-02-07 12:00:00,8.0,-2.2,30.42,SW,225,7.0,14.0,75,0.00,,,0.00,VWS V14.01,2014-02-07 18:00:00,
2014-02-07 12:03:00,3.7,-2.0,30.42,SW,233,9.0,14.0,76,0.00,,,0.00,weatherlink.com 1.10,2014-02-07 18:03:00,
2014-02-07 12:18:00,4.6,-1.0,30.41,SW,217,11.0,14.0,76,0.00,,,0.00,weatherlink.com 1.10,2014-02-07 18:18:00,
2014-02-07 12:30:00,9.0,-1.2,30.41,SW,225,7.0,15.0,74,0.00,,,0.00,VWS V14.01,2014-02-07 18:30:00,
2014-02-07 12:33:00,5.3,-1.0,30.41,WSW,240,5.0,11.0,75,0.00,,,0.00,weatherlink.com 1.10,2014-02-07 18:33:00,
2014-02-07 12:48:00,5.8,-1.0,30.40,West,278,8.0,12.0,73,0.00,,,0.00,weatherlink.com 1.10,2014-02-07 18:48:00,
2014-02-07 13:00:00,10.0,-0.8,30.39,SW,225,7.0,16.0,74,0.00,,,0.00,VWS V14.01,2014-02-07 19:00:00,
2014-02-07 13:03:00,5.7,-1.0,30.39,SW,222,8.0,15.0,74,0.00,,,0.00,weatherlink.com 1.10,2014-02-07 19:03:00,
2014-02-07 13:18:00,6.6,0.0,30.39,SSW,209,7.0,13.0,74,0.00,,,0.00,weatherlink.com 1.10,2014-02-07 19:18:00,
2014-02-07 13:30:00,11.0,0.2,30.38,SW,225,7.0,14.0,73,0.00,,,0.00,VWS V14.01,2014-02-07 19:30:00,
2014-02-07 13:33:00,7.0,0.0,30.39,SSE,153,2.0,13.0,74,0.00,,,0.00,weatherlink.com 1.10,2014-02-07 19:33:00,
2014-02-07 13:48:00,7.3,0.0,30.38,SSW,209,6.0,15.0,73,0.00,,,0.00,weatherlink.com 1.10,2014-02-07 19:48:00,
2014-02-07 14:00:00,11.0,0.9,30.38,SW,225,8.0,17.0,72,0.00,,,0.00,VWS V14.01,2014-02-07 20:00:00,
2014-02-07 14:03:00,7.7,1.0,30.38,WSW,240,8.0,15.0,73,0.00,,,0.00,weatherlink.com 1.10,2014-02-07 20:03:00,
2014-02-07 14:18:00,7.8,1.0,30.38,SW,223,10.0,14.0,74,0.00,,,0.00,weatherlink.com 1.10,2014-02-07 20:18:00,
2014-02-07 14:30:00,11.0,1.2,30.38,SW,225,8.0,15.0,73,0.00,,,0.00,VWS V14.01,2014-02-07 20:30:00,
2014-02-07 14:33:00,8.2,1.0,30.38,WSW,248,6.0,14.0,73,0.00,,,0.00,weatherlink.com 1.10,2014-02-07 20:33:00,
2014-02-07 14:49:00,8.2,2.0,30.38,SW,229,7.0,14.0,74,0.00,,,0.00,weatherlink.com 1.10,2014-02-07 20:49:00,
2014-02-07 15:00:00,11.0,1.5,30.38,SW,225,9.0,16.0,73,0.00,,,0.00,VWS V14.01,2014-02-07 21:00:00,
2014-02-07 15:04:00,8.4,1.0,30.38,SW,226,11.0,13.0,73,0.00,,,0.00,weatherlink.com 1.10,2014-02-07 21:04:00,
2014-02-07 15:19:00,8.5,2.0,30.38,SW,229,5.0,14.0,73,0.00,,,0.00,weatherlink.com 1.10,2014-02-07 21:19:00,
2014-02-07 15:30:00,11.0,1.7,30.37,SW,225,9.0,14.0,73,0.00,,,0.00,VWS V14.01,2014-02-07 21:30:00,
2014-02-07 15:34:00,8.5,2.0,30.37,SSW,200,6.0,15.0,73,0.00,,,0.00,weatherlink.com 1.10,2014-02-07 21:34:00,
2014-02-07 15:49:00,8.4,2.0,30.37,SSW,211,7.0,13.0,74,0.00,,,0.00,weatherlink.com 1.10,2014-02-07 21:49:00,
2014-02-07 16:00:00,10.0,1.7,30.37,SW,225,8.0,14.0,75,0.00,,,0.00,VWS V14.01,2014-02-07 22:00:00,
2014-02-07 16:04:00,8.3,2.0,30.37,SW,222,8.0,13.0,74,0.00,,,0.00,weatherlink.com 1.10,2014-02-07 22:04:00,
2014-02-07 16:19:00,8.0,1.0,30.36,SW,225,8.0,10.0,74,0.00,,,0.00,weatherlink.com 1.10,2014-02-07 22:19:00,
2014-02-07 16:30:00,8.0,1.4,30.36,SW,225,7.0,14.0,76,0.00,,,0.00,VWS V14.01,2014-02-07 22:30:00,
2014-02-07 16:34:00,7.6,1.0,30.36,WSW,246,8.0,10.0,75,0.00,,,0.00,weatherlink.com 1.10,2014-02-07 22:34:00,
2014-02-07 16:49:00,7.1,1.0,30.36,SW,218,2.0,7.0,75,0.00,,,0.00,weatherlink.com 1.10,2014-02-07 22:49:00,
2014-02-07 17:00:00,7.0,0.1,30.35,SW,225,4.0,10.0,77,0.00,,,0.00,VWS V14.01,2014-02-07 23:00:00,
2014-02-07 17:04:00,5.9,0.0,30.36,South,188,2.0,7.0,76,0.00,,,0.00,weatherlink.com 1.10,2014-02-07 23:04:00,
2014-02-07 17:19:00,4.2,-1.0,30.36,SSW,192,2.0,6.0,78,0.00,,,0.00,weatherlink.com 1.10,2014-02-07 23:19:00,
2014-02-07 17:30:00,5.0,-1.6,30.36,SSW,202,3.0,8.0,77,0.00,,,0.00,VWS V14.01,2014-02-07 23:30:00,
2014-02-07 17:34:00,3.3,-2.0,30.36,South,180,3.0,4.0,80,0.00,,,0.00,weatherlink.com 1.10,2014-02-07 23:34:00,
2014-02-07 17:49:00,3.2,-1.0,30.36,SW,236,3.0,7.0,81,0.00,,,0.00,weatherlink.com 1.10,2014-02-07 23:49:00,
2014-02-07 18:00:00,4.0,-2.3,30.37,SW,225,3.0,8.0,79,0.00,,,0.00,VWS V14.01,2014-02-08 00:00:00,
2014-02-07 18:04:00,2.3,-2.0,30.37,SSW,209,0.0,6.0,81,0.00,,,0.00,weatherlink.com 1.10,2014-02-08 00:04:00,
2014-02-07 18:20:00,2.5,-2.0,30.37,SSW,196,5.0,8.0,81,0.00,,,0.00,weatherlink.com 1.10,2014-02-08 00:20:00,
2014-02-07 18:30:00,3.0,-2.2,30.37,SW,225,4.0,9.0,79,0.00,,,0.00,VWS V14.01,2014-02-08 00:30:00,
2014-02-07 18:35:00,2.4,-2.0,30.37,SSW,205,6.0,9.0,81,0.00,,,0.00,weatherlink.com 1.10,2014-02-08 00:35:00,
2014-02-07 18:50:00,1.4,-3.0,30.37,SW,229,5.0,5.0,80,0.00,,,0.00,weatherlink.com 1.10,2014-02-08 00:50:00,
2014-02-07 19:00:00,2.0,-3.6,30.37,SW,225,3.0,8.0,79,0.00,,,0.00,VWS V14.01,2014-02-08 01:00:00,
2014-02-07 19:05:00,0.9,-4.0,30.36,SSW,206,1.0,4.0,80,0.00,,,0.00,weatherlink.com 1.10,2014-02-08 01:05:00,
2014-02-07 19:20:00,0.9,-3.0,30.37,SSW,202,1.0,3.0,82,0.00,,,0.00,weatherlink.com 1.10,2014-02-08 01:20:00,
2014-02-07 19:30:00,2.0,-2.7,30.36,SW,225,2.0,6.0,81,0.00,,,0.00,VWS V14.01,2014-02-08 01:30:00,
2014-02-07 19:35:00,1.3,-3.0,30.36,SW,217,1.0,4.0,81,0.00,,,0.00,weatherlink.com 1.10,2014-02-08 01:35:00,
2014-02-07 19:50:00,2.1,-2.0,30.36,SW,226,6.0,8.0,81,0.00,,,0.00,weatherlink.com 1.10,2014-02-08 01:50:00,
2014-02-07 20:00:00,3.0,-2.0,30.36,SW,225,4.0,10.0,81,0.00,,,0.00,VWS V14.01,2014-02-08 02:00:00,
2014-02-07 20:05:00,2.9,-2.0,30.36,SW,218,3.0,9.0,80,0.00,,,0.00,weatherlink.com 1.10,2014-02-08 02:05:00,
2014-02-07 20:20:00,3.7,-1.0,30.36,SW,215,2.0,7.0,80,0.00,,,0.00,weatherlink.com 1.10,2014-02-08 02:20:00,
2014-02-07 20:30:00,5.0,-0.7,30.36,SW,225,4.0,9.0,80,0.00,,,0.00,VWS V14.01,2014-02-08 02:30:00,
2014-02-07 20:35:00,4.4,-1.0,30.36,SW,218,4.0,7.0,80,0.00,,,0.00,weatherlink.com 1.10,2014-02-08 02:35:00,
2014-02-07 20:50:00,5.1,0.0,30.36,SSW,199,4.0,8.0,79,0.00,,,0.00,weatherlink.com 1.10,2014-02-08 02:50:00,
2014-02-07 21:00:00,7.0,0.4,30.37,SW,225,4.0,8.0,80,0.00,,,0.00,VWS V14.01,2014-02-08 03:00:00,
2014-02-07 21:05:00,5.7,0.0,30.37,SW,236,6.0,8.0,78,0.00,,,0.00,weatherlink.com 1.10,2014-02-08 03:05:00,
2014-02-07 21:20:00,6.0,1.0,30.37,WSW,240,6.0,8.0,79,0.00,,,0.00,weatherlink.com 1.10,2014-02-08 03:20:00,
2014-02-07 21:30:00,8.0,1.3,30.36,SW,225,4.0,10.0,79,0.00,,,0.00,VWS V14.01,2014-02-08 03:30:00,
2014-02-07 21:36:00,6.5,1.0,30.36,SW,227,3.0,8.0,79,0.00,,,0.00,weatherlink.com 1.10,2014-02-08 03:36:00,
2014-02-07 21:51:00,6.9,1.0,30.36,SW,227,4.0,8.0,78,0.00,,,0.00,weatherlink.com 1.10,2014-02-08 03:51:00,
2014-02-07 22:00:00,8.0,1.6,30.36,SW,225,4.0,10.0,79,0.00,,,0.00,VWS V14.01,2014-02-08 04:00:00,
2014-02-07 22:06:00,7.1,2.0,30.36,SW,233,5.0,8.0,78,0.00,,,0.00,weatherlink.com 1.10,2014-02-08 04:06:00,
2014-02-07 22:21:00,7.3,2.0,30.36,West,280,2.0,7.0,79,0.00,,,0.00,weatherlink.com 1.10,2014-02-08 04:21:00,
2014-02-07 22:30:00,9.0,2.2,30.36,SW,225,3.0,8.0,79,0.00,,,0.00,VWS V14.01,2014-02-08 04:30:00,
2014-02-07 22:36:00,7.3,2.0,30.36,West,268,1.0,5.0,79,0.00,,,0.00,weatherlink.com 1.10,2014-02-08 04:36:00,
2014-02-07 22:51:00,7.2,2.0,30.36,West,263,0.0,4.0,79,0.00,,,0.00,weatherlink.com 1.10,2014-02-08 04:51:00,
2014-02-07 23:00:00,9.0,2.1,30.37,WSW,248,2.0,7.0,79,0.00,,,0.00,VWS V14.01,2014-02-08 05:00:00,
2014-02-07 23:06:00,7.3,2.0,30.36,SW,226,3.0,8.0,79,0.00,,,0.00,weatherlink.com 1.10,2014-02-08 05:06:00,
2014-02-07 23:21:00,7.4,2.0,30.36,SW,223,7.0,9.0,79,0.00,,,0.00,weatherlink.com 1.10,2014-02-08 05:21:00,
2014-02-07 23:30:00,9.0,2.2,30.36,SW,225,4.0,10.0,79,0.00,,,0.00,VWS V14.01,2014-02-08 05:30:00,
2014-02-07 23:36:00,7.4,2.0,30.36,WSW,253,4.0,8.0,79,0.00,,,0.00,weatherlink.com 1.10,2014-02-08 05:36:00,
2014-02-07 23:51:00,7.1,2.0,30.36,SSW,206,7.0,7.0,78,0.00,,,0.00,weatherlink.com 1.10,2014-02-08 05:51:00,